Dewpoint
69 69 68 69 70 68 67 68 68 71 71 71 72 72 71 69 70 70 70 70 71 70
68 69 69 68 69 68 69 69 69 70 72 71 72 71 71 71 70 70 69 70 70 70
68 67 68 69 69 70 68 70 72 71 72 72 72 70 70 70 70 70 70 70 69 68
68 68 69 69 70 70 70 69 71 71 71 71 71 71 71 71 70 69 68 69 70 68
69 70 69 69 70 70 70 69 70 70 70 69 70 70 69 69 70 69 68 68 66 66
70 69 69 69 68 70 70 69 69 69 68 67 64 64 70 70 69 69 69 69 67 67
70 70 69 69 68 68 70 69 68 67 68 68 66 64 68 70 69 69 70 70 69 69
70 71 70 69 68 68 68 70 69 68 66 67 69 69 70 70 70 70 69 70 71 70
68 68 68 68 68 68 67 67 68 68 69 69 67 67 68 70 70 70 70 69 69 69
67 67 67 69 68 68 67 66 66 67 69 69 69 66 66 68 69 70 69 69 70 70
67 66 67 68 68 66 66 66 64 66 68 69 69 64 63 66 67 67 69 70 69 69
66 67 67 65 64 64 64 63 63 65 68 68 64 61 62 65 66 67 68 69 70 69
65 65 65 65 64 63 64 67 67 66 65 64 64 61 61 63 66 68 67 67 65 62
64 64 63 63 64 64 67 66 64 62 61 61 61 59 57 59 65 66 66 66 62 62
Lifted_Index
-3 -3 -3 -4 -4 -4 -4 -4 -4 -4 -4 -5 -5 -5 -5 -4 -4 -3 -3 -4 -4 -4
-2 -3 -3 -4 -4 -4 -4 -4 -4 -4 -4 -5 -5 -5 -5 -4 -4 -4 -3 -4 -4 -4
-3 -3 -3 -3 -4 -4 -4 -4 -5 -5 -5 -5 -5 -4 -4 -4 -4 -4 -4 -4 -4 -4
-3 -3 -3 -3 -3 -4 -4 -4 -5 -5 -5 -5 -4 -4 -4 -4 -4 -4 -3 -3 -3 -3
-4 -4 -3 -3 -3 -3 -4 -4 -5 -5 -5 -4 -4 -4 -4 -4 -4 -3 -3 -3 -3 -3
-4 -4 -4 -4 -3 -3 -3 -4 -4 -4 -4 -4 -4 -4 -4 -4 -3 -3 -3 -3 -3 -3
-4 -4 -4 -4 -4 -3 -3 -3 -4 -4 -4 -4 -3 -3 -3 -3 -4 -3 -3 -3 -3 -3
-4 -3 -3 -3 -3 -3 -3 -3 -3 -3 -4 -3 -3 -3 -3 -3 -4 -4 -3 -3 -3 -3
-4 -3 -3 -3 -3 -3 -3 -3 -3 -3 -3 -3 -3 -4 -4 -4 -4 -4 -4 -4 -3 -3
-3 -3 -3 -2 -2 -2 -2 -2 -2 -2 -2 -3 -3 -4 -4 -4 -4 -4 -4 -4 -3 -3
-3 -3 -2 -2 -2 -2 -2 -1 -1 -2 -2 -2 -3 -3 -4 -4 -4 -4 -4 -3 -3 -3
-2 -2 -2 -2 -2 -1 -1 -0 -0 -1 -1 -2 -3 -3 -4 -4 -4 -4 -3 -3 -4 -4
-1 -1 -1 -1 -1 -0 0 0 -0 -1 -1 -2 -3 -3 -3 -3 -3 -3 -3 -3 -3 -4
-0 -0 -0 -0 0 0 0 1 0 -1 -1 -1 -2 -2 -2 -3 -3 -2 -2 -3 -3 -3